TimeHST,TemperatureF,Dew PointF,Humidity,Sea Level PressureIn,VisibilityMPH,Wind Direction,Wind SpeedMPH,Gust SpeedMPH,PrecipitationIn,Events,Conditions,WindDirDegrees,DateUTC
12:54 AM,73.0,70.0,90,30.09,10.0,NE,10.4,18.4,0.00,Rain,Light Rain,50,2013-06-13 10:54:00
1:54 AM,73.0,68.0,84,30.07,10.0,NE,18.4,24.2,0.00,,Partly Cloudy,50,2013-06-13 11:54:00
2:54 AM,73.9,68.0,82,30.07,10.0,NE,15.0,-,N/A,,Clear,50,2013-06-13 12:54:00
3:54 AM,73.9,68.0,82,30.08,10.0,NE,13.8,-,0.00,,Clear,50,2013-06-13 13:54:00
4:54 AM,73.9,69.1,85,30.07,10.0,NE,17.3,-,N/A,,Clear,40,2013-06-13 14:54:00
5:54 AM,73.9,69.1,85,30.08,10.0,NE,18.4,-,0.00,,Clear,50,2013-06-13 15:54:00
6:54 AM,75.9,68.0,76,30.09,10.0,NE,18.4,25.3,N/A,,Clear,50,2013-06-13 16:54:00
7:54 AM,80.1,69.1,69,30.10,10.0,NE,19.6,26.5,N/A,,Partly Cloudy,50,2013-06-13 17:54:00
8:54 AM,82.0,69.1,65,30.10,10.0,NE,20.7,28.8,N/A,,Partly Cloudy,50,2013-06-13 18:54:00
9:54 AM,84.0,69.1,61,30.11,10.0,NE,19.6,31.1,N/A,,Scattered Clouds,50,2013-06-13 19:54:00
10:54 AM,84.9,70.0,61,30.11,10.0,NE,21.9,34.5,0.00,,Partly Cloudy,40,2013-06-13 20:54:00
11:54 AM,86.0,70.0,59,30.11,10.0,NE,23.0,33.4,N/A,,Scattered Clouds,50,2013-06-13 21:54:00
12:54 PM,87.1,68.0,53,30.09,10.0,NE,24.2,34.5,N/A,,Scattered Clouds,50,2013-06-13 22:54:00
1:54 PM,88.0,68.0,51,30.08,10.0,ENE,27.6,35.7,0.00,,Scattered Clouds,60,2013-06-13 23:54:00
2:54 PM,86.0,69.1,57,30.07,10.0,ENE,24.2,36.8,0.00,,Scattered Clouds,60,2013-06-14 00:54:00
3:54 PM,84.9,70.0,61,30.06,10.0,NE,32.2,39.1,N/A,,Scattered Clouds,40,2013-06-14 01:54:00
4:54 PM,82.0,71.1,69,30.07,10.0,NE,23.0,33.4,N/A,,Partly Cloudy,50,2013-06-14 02:54:00
5:54 PM,79.0,71.1,77,30.09,10.0,NE,20.7,28.8,N/A,,Partly Cloudy,50,2013-06-14 03:54:00
6:54 PM,75.9,70.0,82,30.09,10.0,NE,18.4,-,N/A,,Scattered Clouds,50,2013-06-14 04:54:00
7:54 PM,75.0,72.0,90,30.11,10.0,NE,20.7,-,N/A,,Mostly Cloudy,40,2013-06-14 05:54:00
8:54 PM,73.9,71.1,91,30.11,10.0,NE,20.7,28.8,0.00,,Partly Cloudy,40,2013-06-14 06:54:00
9:54 PM,75.0,70.0,84,30.12,10.0,NE,18.4,-,0.00,,Scattered Clouds,40,2013-06-14 07:54:00
10:54 PM,75.0,70.0,84,30.12,10.0,NE,19.6,-,N/A,,Overcast,50,2013-06-14 08:54:00
11:54 PM,73.9,70.0,87,30.12,10.0,NE,16.1,-,N/A,,Scattered Clouds,50,2013-06-14 09:54:00